This demonstration page uses our WeatherBlox Daily Observations layout. Learn more.

Left ArrowRight Arrow

Hourly Observations for November 27, 2015

Temp ( °F °C ) Dew Point ( °F °C ) Humidity (%) Winds ( mph kmh ) Pressure ( in mb ) Visibility ( mi km ) Precip ( " mm )
12:05 am 00:05 Cloudy 57 14 45 7 63 63 S 13 20 30.33 1027 10 16 N/A
12:25 am 00:25 Cloudy 57 14 45 7 63 63 S 14 22 30.33 1027 10 16 N/A
12:45 am 00:45 Cloudy 55 13 45 7 67 67 S 13 20 30.33 1027 10 16 N/A
1:05 am 01:05 Cloudy 55 13 45 7 67 67 S 12 19 30.33 1027 10 16 N/A
1:25 am 01:25 Cloudy 55 13 45 7 67 67 S 13 20 30.33 1027 10 16 N/A
1:45 am 01:45 Mostly Cloudy 55 13 45 7 67 67 S 14 22 30.30 1026 10 16 N/A
2:05 am 02:05 Partly Cloudy 55 13 45 7 67 67 S 15 24 30.30 1026 10 16 N/A
2:25 am 02:25 Clear 55 13 45 7 67 67 S 13 20 30.30 1026 10 16 N/A
2:45 am 02:45 Clear 55 13 45 7 67 67 S 14 22 30.30 1026 10 16 N/A
3:05 am 03:05 Clear 55 13 45 7 67 67 S 14 22 30.30 1026 10 16 N/A
3:25 am 03:25 Mostly Cloudy 57 14 46 8 67 67 S 14 22 30.30 1026 10 16 N/A
3:45 am 03:45 Cloudy 57 14 46 8 67 67 S 15 24 30.30 1026 10 16 N/A
4:05 am 04:05 Cloudy 57 14 46 8 67 67 S 16 26 30.30 1026 10 16 N/A
4:25 am 04:25 Cloudy 57 14 46 8 67 67 S 14 22 30.30 1026 10 16 N/A
4:45 am 04:45 Cloudy 55 13 46 8 72 72 S 14 22 30.30 1026 10 16 N/A
5:05 am 05:05 Cloudy 55 13 46 8 72 72 S 15 24 30.30 1026 10 16 N/A
5:25 am 05:25 Mostly Cloudy 55 13 46 8 72 72 S 14 22 30.30 1026 10 16 N/A
5:45 am 05:45 Mostly Cloudy 55 13 46 8 72 72 S 12 19 30.30 1026 10 16 N/A
6:05 am 06:05 Partly Cloudy 55 13 46 8 72 72 S 9 15 30.30 1026 10 16 N/A
6:25 am 06:25 Partly Cloudy 55 13 46 8 72 72 S 10 17 30.30 1026 10 16 N/A
6:45 am 06:45 Cloudy 55 13 46 8 72 72 S 9 15 30.30 1026 10 16 N/A
7:05 am 07:05 Cloudy 55 13 46 8 72 72 S 8 13 30.33 1027 10 16 N/A
7:25 am 07:25 Cloudy 55 13 48 9 77 77 S 8 13 30.33 1027 10 16 N/A
7:45 am 07:45 Cloudy 55 13 48 9 77 77 S 8 13 30.33 1027 10 16 N/A
8:05 am 08:05 Cloudy 55 13 48 9 77 77 S 9 15 30.33 1027 10 16 N/A
8:25 am 08:25 Mostly Cloudy 55 13 48 9 77 77 S 10 17 30.33 1027 10 16 N/A
8:45 am 08:45 Mostly Cloudy 55 13 48 9 77 77 S 8 13 30.33 1027 10 16 N/A
9:05 am 09:05 Cloudy 54 12 50 10 88 88 S 8 13 30.33 1027 10 16 N/A
9:25 am 09:25 Cloudy 54 12 50 10 88 88 S 10 17 30.33 1027 10 16 N/A
9:45 am 09:45 Cloudy 54 12 50 10 88 88 S 10 17 30.33 1027 7 11 N/A
10:05 am 10:05 Cloudy 55 13 50 10 82 82 S 9 15 30.33 1027 10 16 N/A
10:25 am 10:25 Cloudy 55 13 52 11 88 88 S 9 15 30.33 1027 10 16 N/A
10:45 am 10:45 Cloudy 55 13 52 11 88 88 S 10 17 30.33 1027 10 16 N/A
11:05 am 11:05 Cloudy 55 13 52 11 88 88 S 12 19 30.33 1027 10 16 N/A
11:25 am 11:25 Cloudy 55 13 52 11 88 88 S 12 19 30.30 1026 7 11 N/A
11:45 am 11:45 Cloudy 55 13 54 12 94 94 S 10 17 30.30 1026 10 16 N/A
12:05 pm 12:05 Cloudy 57 14 54 12 88 88 SSW 12 19 30.30 1026 7 11 N/A
12:25 pm 12:25 Cloudy 57 14 54 12 88 88 SSW 10 17 30.30 1026 7 11 N/A
12:45 pm 12:45 Cloudy 57 14 55 13 94 94 SSW 12 19 30.24 1024 7 11 N/A
1:05 pm 13:05 Cloudy 57 14 55 13 94 94 SSW 10 17 30.24 1024 5 8 N/A
1:25 pm 13:25 Cloudy 57 14 55 13 94 94 S 10 17 30.24 1024 7 11 N/A
1:45 pm 13:45 Cloudy 57 14 55 13 94 94 SSW 10 17 30.21 1023 5 8 N/A
2:05 pm 14:05 Cloudy 57 14 55 13 94 94 SSW 8 13 30.21 1023 7 11 N/A
2:25 pm 14:25 Cloudy 57 14 55 13 94 94 SSW 8 13 30.21 1023 7 11 N/A
2:45 pm 14:45 Cloudy 57 14 55 13 94 94 SSW 8 13 30.21 1023 5 8 N/A
3:05 pm 15:05 Cloudy 57 14 55 13 94 94 SSW 8 13 30.21 1023 5 8 N/A
3:25 pm 15:25 Cloudy 57 14 55 13 94 94 SSW 7 11 30.21 1023 5 8 N/A
3:45 pm 15:45 Cloudy 57 14 55 13 94 94 SSW 8 13 30.21 1023 7 11 N/A
4:05 pm 16:05 Cloudy 57 14 55 13 94 94 SSW 6 9 30.21 1023 7 11 N/A
4:25 pm 16:25 Cloudy 57 14 55 13 94 94 SSW 6 9 30.21 1023 3 5 N/A
4:45 pm 16:45 Cloudy 55 13 55 13 100 100 SSW 3 6 30.24 1024 4 6 N/A
5:05 pm 17:05 Cloudy 55 13 55 13 100 100 S 3 6 30.24 1024 4 6 N/A
5:25 pm 17:25 Cloudy 55 13 55 13 100 100 Calm 30.24 1024 4 6 N/A
5:45 pm 17:45 Cloudy 55 13 55 13 100 100 Calm 30.27 1025 4 6 N/A
6:05 pm 18:05 Cloudy 55 13 55 13 100 100 NW 3 6 30.27 1025 2 2 N/A
6:25 pm 18:25 Cloudy 50 10 50 10 100 100 N 13 20 30.27 1025 3 5 N/A
6:45 pm 18:45 Cloudy 50 10 48 9 94 94 N 13 20 30.27 1025 5 8 N/A
7:05 pm 19:05 Cloudy 48 9 48 9 100 100 N 9 15 30.27 1025 3 4 N/A
7:25 pm 19:25 Cloudy 48 9 48 9 100 100 N 10 17 30.27 1025 5 8 N/A
7:45 pm 19:45 Cloudy 48 9 46 8 94 94 N 10 17 30.27 1025 4 6 N/A
8:05 pm 20:05 Cloudy 48 9 46 8 94 94 N 8 13 30.27 1025 5 8 N/A
8:25 pm 20:25 Cloudy 48 9 46 8 94 94 N 8 13 30.27 1025 7 11 N/A
8:45 pm 20:45 Cloudy 46 8 46 8 100 100 N 7 11 30.27 1025 5 8 N/A
9:05 pm 21:05 Cloudy 46 8 46 8 100 100 N 9 15 30.27 1025 7 11 N/A
9:25 pm 21:25 Cloudy 46 8 46 8 100 100 N 8 13 30.27 1025 7 11 N/A
9:45 pm 21:45 Cloudy 46 8 46 8 100 100 N 8 13 30.27 1025 7 11 N/A
10:05 pm 22:05 Cloudy 46 8 46 8 100 100 NNE 10 17 30.27 1025 5 8 N/A
10:25 pm 22:25 Cloudy 46 8 45 7 93 93 NNE 13 20 30.27 1025 4 6 N/A
10:45 pm 22:45 Cloudy 46 8 45 7 93 93 N 9 15 30.27 1025 4 6 N/A
11:05 pm 23:05 Cloudy 45 7 45 7 100 100 N 9 15 30.27 1025 5 8 N/A
11:25 pm 23:25 Cloudy 45 7 45 7 100 100 NNE 10 17 30.27 1025 4 6 N/A
11:45 pm 23:45 Cloudy 45 7 45 7 100 100 N 10 17 30.27 1025 4 6 N/A

Powered by Vaisala Xweather